Погода в Ортоне

Россия / Кемеровская область (Кузбасс)     53°12′16″N   88°37′15″E
темп.,
°C
ветер,
м/с
пор.,
м/с
влажн.,
%
обл.,
%
осадки,
мм/ч
давл.,
гПа
погр.,
м
12 мая, ср
ср1201:00+6всв1163100 0.0 101410
04:00+5вюв1168100 0.0 101410
07:00+7юв0066100 0.0 101557
10:00+13ссз1244100 0.0 1014731
13:00+18с1332100 0.0 10122731
16:00+17сз343599 0.0 10122449
19:00+14юз355798 0.2 1013346
22:00+8зюз118994 0.6 101611
13 мая, чт
чт1301:00+6зсз009453 0.6 101710
04:00+5ююз119580 0.0 101712
07:00+6ююз119157 0.0 1018101
10:00+12юз126998 0.0 1016911
13:00+15зсз235067 0.6 10141543
16:00+16сз224275 0.6 10122135
19:00+14з235861 0.7 1012308
22:00+7в00807 0.0 101310
14 мая, пт
пт1401:00+6юв0091100 0.3 101410
04:00+6ююз009392 0.1 101411
07:00+7ююз119098 0.1 101598
10:00+10юз137899 0.1 1015567
13:00+9зюз2485100 1.1 1016576
16:00+9з2391100 1.4 1017363
19:00+9з368399 2.3 10201035
22:00+5зюз1194100 0.1 102419
15 мая, сб
сб1501:00+6з1194100 0.2 102514
04:00+4зюз009579 0.0 102510
07:00+5ююз129459 0.0 1026129
10:00+9юз2480100 0.0 1026658
13:00+13зюз345493 0.0 10241457
16:00+12сз2562100 0.0 1023734
19:00+13ссз1163100 0.0 1023136
22:00+9в1175100 0.0 102311
16 мая, вс
вс1601:00+9юв1177100 0.0 102211
04:00+8ююв1180100 0.0 102117
07:00+9ю128099 0.0 102088
10:00+15ююз23566 0.0 1017666
13:00+20з574265 0.0 10142100
16:00+18з5951100 0.0 10141893
19:00+15зюз2871100 0.1 1014874
22:00+10ююз119491 0.0 101511